Year,Month,Day,Hour,Minute,Value (Times are PST for temperature in C)
2018,12,04,00,01,0.30
2018,12,04,00,02,0.30
2018,12,04,00,03,0.40
2018,12,04,00,05,0.40
2018,12,04,00,06,0.40
2018,12,04,00,07,0.40
2018,12,04,00,08,0.40
2018,12,04,00,09,0.40
2018,12,04,00,11,0.40
2018,12,04,00,12,0.40
2018,12,04,00,13,0.40
2018,12,04,00,14,0.40
2018,12,04,00,15,0.40
2018,12,04,00,16,0.40
2018,12,04,00,17,0.40
2018,12,04,00,18,0.40
2018,12,04,00,19,0.40
2018,12,04,00,21,0.40
2018,12,04,00,22,0.40
2018,12,04,00,24,0.40
2018,12,04,00,25,0.40
2018,12,04,00,27,0.40
2018,12,04,00,28,0.40
2018,12,04,00,29,0.40
2018,12,04,00,30,0.40
2018,12,04,00,31,0.40
2018,12,04,00,32,0.40
2018,12,04,00,33,0.40
2018,12,04,00,35,0.40
2018,12,04,00,36,0.40
2018,12,04,00,37,0.40
2018,12,04,00,38,0.40
2018,12,04,00,40,0.40
2018,12,04,00,41,0.40
2018,12,04,00,42,0.40
2018,12,04,00,43,0.40
2018,12,04,00,44,0.40
2018,12,04,00,45,0.40
2018,12,04,00,46,0.40
2018,12,04,00,47,0.50
2018,12,04,00,48,0.50
2018,12,04,00,49,0.50
2018,12,04,00,50,0.50
2018,12,04,00,51,0.50
2018,12,04,00,52,0.50
2018,12,04,00,54,0.50
2018,12,04,00,56,0.50
2018,12,04,00,57,0.50
2018,12,04,00,58,0.50
2018,12,04,00,59,0.50
2018,12,04,01,01,0.50
2018,12,04,01,03,0.50
2018,12,04,01,05,0.50
2018,12,04,01,06,0.50
2018,12,04,01,07,0.50
2018,12,04,01,08,0.40
2018,12,04,01,09,0.40
2018,12,04,01,10,0.40
2018,12,04,01,11,0.40
2018,12,04,01,13,0.40
2018,12,04,01,14,0.40
2018,12,04,01,15,0.40
2018,12,04,01,16,0.30
2018,12,04,01,17,0.30
2018,12,04,01,18,0.30
2018,12,04,01,19,0.30
2018,12,04,01,20,0.30
2018,12,04,01,21,0.30
2018,12,04,01,22,0.30
2018,12,04,01,23,0.30
2018,12,04,01,24,0.30
2018,12,04,01,25,0.30
2018,12,04,01,26,0.30
2018,12,04,01,27,0.30
2018,12,04,01,29,0.30
2018,12,04,01,30,0.30
2018,12,04,01,32,0.30
2018,12,04,01,33,0.30
2018,12,04,01,34,0.20
2018,12,04,01,35,0.20
2018,12,04,01,36,0.20
2018,12,04,01,38,0.20
2018,12,04,01,39,0.20
2018,12,04,01,40,0.20
2018,12,04,01,41,0.20
2018,12,04,01,42,0.20
2018,12,04,01,43,0.20
2018,12,04,01,44,0.20
2018,12,04,01,45,0.20
2018,12,04,01,46,0.20
2018,12,04,01,47,0.20
2018,12,04,01,48,0.20
2018,12,04,01,49,0.20
2018,12,04,01,50,0.20
2018,12,04,01,51,0.20
2018,12,04,01,53,0.20
2018,12,04,01,54,0.20
2018,12,04,01,55,0.20
2018,12,04,01,56,0.20
2018,12,04,01,57,0.20
2018,12,04,01,58,0.20
2018,12,04,01,59,0.20
2018,12,04,02,00,0.20
2018,12,04,02,02,0.20
2018,12,04,02,03,0.20
2018,12,04,02,04,0.20
2018,12,04,02,06,0.20
2018,12,04,02,07,0.20
2018,12,04,02,08,0.20
2018,12,04,02,10,0.20
2018,12,04,02,11,0.20
2018,12,04,02,12,0.20
2018,12,04,02,13,0.20
2018,12,04,02,14,0.20
2018,12,04,02,16,0.20
2018,12,04,02,18,0.20
2018,12,04,02,19,0.20
2018,12,04,02,21,0.20
2018,12,04,02,22,0.20
2018,12,04,02,23,0.10
2018,12,04,02,24,0.10
2018,12,04,02,26,0.10
2018,12,04,02,28,0.10
2018,12,04,02,29,0.10
2018,12,04,02,30,0.20
2018,12,04,02,31,0.10
2018,12,04,02,32,0.20
2018,12,04,02,34,0.20
2018,12,04,02,35,0.20
2018,12,04,02,36,0.20
2018,12,04,02,37,0.20
2018,12,04,02,38,0.20
2018,12,04,02,40,0.20
2018,12,04,02,41,0.20
2018,12,04,02,42,0.20
2018,12,04,02,43,0.20
2018,12,04,02,45,0.20
2018,12,04,02,46,0.20
2018,12,04,02,47,0.20
2018,12,04,02,48,0.20
2018,12,04,02,49,0.20
2018,12,04,02,50,0.20
2018,12,04,02,52,0.10
2018,12,04,02,53,0.10
2018,12,04,02,54,0.10
2018,12,04,02,55,0.10
2018,12,04,02,56,0.10
2018,12,04,02,57,0.10
2018,12,04,02,59,0.10
2018,12,04,03,00,0.10
2018,12,04,03,01,0.10
2018,12,04,03,03,0.00
2018,12,04,03,04,0.00
2018,12,04,03,05,0.00
2018,12,04,03,06,-0.10
2018,12,04,03,07,-0.10
2018,12,04,03,09,-0.10
2018,12,04,03,10,-0.10
2018,12,04,03,11,-0.10
2018,12,04,03,14,-0.20
2018,12,04,03,15,-0.20
2018,12,04,03,16,-0.20
2018,12,04,03,17,-0.20
2018,12,04,03,18,-0.30
2018,12,04,03,20,-0.30
2018,12,04,03,21,-0.30
2018,12,04,03,22,-0.30
2018,12,04,03,23,-0.30
2018,12,04,03,24,-0.30
2018,12,04,03,25,-0.30
2018,12,04,03,26,-0.30
2018,12,04,03,27,-0.30
2018,12,04,03,28,-0.30
2018,12,04,03,29,-0.30
2018,12,04,03,30,-0.30
2018,12,04,03,32,-0.30
2018,12,04,03,33,-0.30
2018,12,04,03,35,-0.30
2018,12,04,03,37,-0.20
2018,12,04,03,39,-0.20
2018,12,04,03,41,-0.20
2018,12,04,03,42,-0.20
2018,12,04,03,43,-0.20
2018,12,04,03,44,-0.20
2018,12,04,03,46,-0.20
2018,12,04,03,47,-0.20
2018,12,04,03,48,-0.20
2018,12,04,03,50,-0.20
2018,12,04,03,52,-0.20
2018,12,04,03,53,-0.20
2018,12,04,03,54,-0.20
2018,12,04,03,55,-0.30
2018,12,04,03,56,-0.30
2018,12,04,03,58,-0.30
2018,12,04,03,59,-0.30
2018,12,04,04,00,-0.30
2018,12,04,04,01,-0.30
2018,12,04,04,02,-0.30
2018,12,04,04,03,-0.30
2018,12,04,04,04,-0.30
2018,12,04,04,05,-0.30
2018,12,04,04,06,-0.40
2018,12,04,04,08,-0.40
2018,12,04,04,09,-0.40
2018,12,04,04,11,-0.30
2018,12,04,04,12,-0.40
2018,12,04,04,13,-0.30
2018,12,04,04,14,-0.30
2018,12,04,04,16,-0.30
2018,12,04,04,17,-0.30
2018,12,04,04,18,-0.30
2018,12,04,04,19,-0.30
2018,12,04,04,21,-0.30
2018,12,04,04,23,-0.30
2018,12,04,04,24,-0.30
2018,12,04,04,25,-0.30
2018,12,04,04,26,-0.30
2018,12,04,04,27,-0.30
2018,12,04,04,28,-0.30
2018,12,04,04,29,-0.30
2018,12,04,04,31,-0.20
2018,12,04,04,32,-0.20
2018,12,04,04,33,-0.20
2018,12,04,04,34,-0.20
2018,12,04,04,36,-0.20
2018,12,04,04,37,-0.20
2018,12,04,04,38,-0.20
2018,12,04,04,39,-0.20
2018,12,04,04,41,-0.20
2018,12,04,04,43,-0.20
2018,12,04,04,44,-0.20
2018,12,04,04,45,-0.20
2018,12,04,04,47,-0.20
2018,12,04,04,48,-0.20
2018,12,04,04,50,-0.20
2018,12,04,04,51,-0.20
2018,12,04,04,53,-0.10
2018,12,04,04,54,-0.10
2018,12,04,04,55,-0.10
2018,12,04,04,56,-0.10
2018,12,04,04,57,-0.10
2018,12,04,04,58,-0.10
2018,12,04,05,00,-0.10
2018,12,04,05,01,-0.10
2018,12,04,05,02,-0.10
2018,12,04,05,03,-0.10
2018,12,04,05,04,-0.10
2018,12,04,05,05,-0.10
2018,12,04,05,06,-0.10
2018,12,04,05,07,-0.10
2018,12,04,05,08,-0.10
2018,12,04,05,09,-0.10
2018,12,04,05,10,-0.10
2018,12,04,05,11,-0.10
2018,12,04,05,12,-0.10
2018,12,04,05,13,-0.10
2018,12,04,05,14,-0.10
2018,12,04,05,15,-0.10
2018,12,04,05,16,-0.10
2018,12,04,05,17,0.00
2018,12,04,05,18,-0.10
2018,12,04,05,19,-0.10
2018,12,04,05,20,-0.10
2018,12,04,05,21,-0.10
2018,12,04,05,22,0.00
2018,12,04,05,23,-0.10
2018,12,04,05,24,-0.10
2018,12,04,05,25,0.00
2018,12,04,05,26,0.00
2018,12,04,05,27,0.00
2018,12,04,05,28,0.00
2018,12,04,05,29,0.00
2018,12,04,05,30,0.00
2018,12,04,05,31,-0.10
2018,12,04,05,32,-0.10
2018,12,04,05,33,0.00
2018,12,04,05,34,0.00
2018,12,04,05,35,0.00
2018,12,04,05,36,0.00
2018,12,04,05,38,0.00
2018,12,04,05,40,-0.10
2018,12,04,05,41,-0.10
2018,12,04,05,42,0.00
2018,12,04,05,43,0.00
2018,12,04,05,45,0.00
2018,12,04,05,46,0.00
2018,12,04,05,47,0.00
2018,12,04,05,48,0.00
2018,12,04,05,49,0.00
2018,12,04,05,51,0.00
2018,12,04,05,52,0.00
2018,12,04,05,53,0.00
2018,12,04,05,54,-0.10
2018,12,04,05,55,0.00
2018,12,04,05,56,0.00
2018,12,04,05,58,0.00
2018,12,04,05,59,0.00
2018,12,04,06,00,0.00
2018,12,04,06,01,0.00
2018,12,04,06,02,0.00
2018,12,04,06,03,0.00
2018,12,04,06,05,0.00
2018,12,04,06,06,0.00
2018,12,04,06,07,0.00
2018,12,04,06,08,0.00
2018,12,04,06,09,0.00
2018,12,04,06,11,0.00
2018,12,04,06,12,0.00
2018,12,04,06,13,0.00
2018,12,04,06,15,0.00
2018,12,04,06,17,0.00
2018,12,04,06,18,0.00
2018,12,04,06,20,0.00
2018,12,04,06,21,0.10
2018,12,04,06,23,0.10
2018,12,04,06,24,0.00
2018,12,04,06,25,0.00
2018,12,04,06,26,0.00
2018,12,04,06,27,0.00
2018,12,04,06,28,0.00
2018,12,04,06,29,0.00
2018,12,04,06,30,0.00
2018,12,04,06,32,0.00
2018,12,04,06,33,0.00
2018,12,04,06,34,0.00
2018,12,04,06,35,-0.10
2018,12,04,06,37,-0.10
2018,12,04,06,38,-0.10
2018,12,04,06,39,-0.20
2018,12,04,06,40,-0.20
2018,12,04,06,41,-0.20
2018,12,04,06,42,-0.20
2018,12,04,06,43,-0.20
2018,12,04,06,44,-0.20
2018,12,04,06,45,-0.20
2018,12,04,06,47,-0.20
2018,12,04,06,48,-0.20
2018,12,04,06,50,-0.20
2018,12,04,06,51,-0.20
2018,12,04,06,53,-0.20
2018,12,04,06,54,-0.30
2018,12,04,06,55,-0.30
2018,12,04,06,56,-0.30
2018,12,04,06,57,-0.30
2018,12,04,06,58,-0.30
2018,12,04,07,00,-0.30
2018,12,04,07,01,-0.30
2018,12,04,07,02,-0.30
2018,12,04,07,03,-0.30
2018,12,04,07,04,-0.30
2018,12,04,07,05,-0.30
2018,12,04,07,06,-0.30
2018,12,04,07,07,-0.30
2018,12,04,07,08,-0.30
2018,12,04,07,09,-0.30
2018,12,04,07,10,-0.30
2018,12,04,07,11,-0.30
2018,12,04,07,12,-0.30
2018,12,04,07,13,-0.30
2018,12,04,07,15,-0.30
2018,12,04,07,17,-0.30
2018,12,04,07,18,-0.30
2018,12,04,07,19,-0.30
2018,12,04,07,20,-0.30
2018,12,04,07,21,-0.30
2018,12,04,07,23,-0.30
2018,12,04,07,25,-0.30
2018,12,04,07,26,-0.30
2018,12,04,07,27,-0.30
2018,12,04,07,28,-0.30
2018,12,04,07,29,-0.30
2018,12,04,07,31,-0.30
2018,12,04,07,33,-0.30
2018,12,04,07,34,-0.30
2018,12,04,07,36,-0.30
2018,12,04,07,37,-0.30
2018,12,04,07,38,-0.30
2018,12,04,07,39,-0.30
2018,12,04,07,40,-0.30
2018,12,04,07,41,-0.30
2018,12,04,07,42,-0.30
2018,12,04,07,43,-0.30
2018,12,04,07,45,-0.30
2018,12,04,07,46,-0.30
2018,12,04,07,47,-0.30
2018,12,04,07,48,-0.30
2018,12,04,07,50,-0.30
2018,12,04,07,51,-0.30
2018,12,04,07,52,-0.30
2018,12,04,07,53,-0.30
2018,12,04,07,54,-0.30
2018,12,04,07,55,-0.30
2018,12,04,07,56,-0.30
2018,12,04,07,57,-0.30
2018,12,04,07,58,-0.30
2018,12,04,07,59,-0.30
2018,12,04,08,00,-0.30
2018,12,04,08,01,-0.30
2018,12,04,08,02,-0.30
2018,12,04,08,03,-0.20
2018,12,04,08,04,-0.30
2018,12,04,08,05,-0.20
2018,12,04,08,07,-0.20
2018,12,04,08,08,-0.20
2018,12,04,08,09,-0.20
2018,12,04,08,10,-0.20
2018,12,04,08,11,-0.20
2018,12,04,08,12,-0.20
2018,12,04,08,14,-0.20
2018,12,04,08,16,-0.20
2018,12,04,08,17,-0.20
2018,12,04,08,19,-0.20
2018,12,04,08,20,-0.20
2018,12,04,08,22,-0.10
2018,12,04,08,23,-0.10
2018,12,04,08,25,-0.10
2018,12,04,08,26,-0.10
2018,12,04,08,27,-0.10
2018,12,04,08,28,-0.10
2018,12,04,08,29,-0.10
2018,12,04,08,30,-0.10
2018,12,04,08,31,-0.10
2018,12,04,08,32,-0.10
2018,12,04,08,34,-0.10
2018,12,04,08,35,-0.10
2018,12,04,08,36,-0.10
2018,12,04,08,38,0.00
2018,12,04,08,40,0.00
2018,12,04,08,41,0.00
2018,12,04,08,42,0.00
2018,12,04,08,43,0.00
2018,12,04,08,44,0.10
2018,12,04,08,45,0.00
2018,12,04,08,46,0.10
2018,12,04,08,48,0.10
2018,12,04,08,49,0.10
2018,12,04,08,50,0.10
2018,12,04,08,51,0.10
2018,12,04,08,52,0.10
2018,12,04,08,53,0.10
2018,12,04,08,54,0.10
2018,12,04,08,55,0.10
2018,12,04,08,56,0.10
2018,12,04,08,57,0.10
2018,12,04,08,59,0.10
2018,12,04,09,00,0.10
2018,12,04,09,01,0.10
2018,12,04,09,03,0.10
2018,12,04,09,04,0.10
2018,12,04,09,05,0.10
2018,12,04,09,06,0.10
2018,12,04,09,07,0.20
2018,12,04,09,10,0.20
2018,12,04,09,11,0.20
2018,12,04,09,12,0.20
2018,12,04,09,13,0.20
2018,12,04,09,15,0.10
2018,12,04,09,16,0.10
2018,12,04,09,18,0.10
2018,12,04,09,19,0.10
2018,12,04,09,20,0.20
2018,12,04,09,21,0.20
2018,12,04,09,24,0.20
2018,12,04,09,25,0.20
2018,12,04,09,26,0.20
2018,12,04,09,27,0.20
2018,12,04,09,28,0.20
2018,12,04,09,29,0.20
2018,12,04,09,30,0.20
2018,12,04,09,32,0.20
2018,12,04,09,33,0.20
2018,12,04,09,34,0.20
2018,12,04,09,35,0.20
2018,12,04,09,36,0.20
2018,12,04,09,38,0.20
2018,12,04,09,39,0.20
2018,12,04,09,41,0.20
2018,12,04,09,42,0.20
2018,12,04,09,43,0.20
2018,12,04,09,45,0.20
2018,12,04,09,46,0.20
2018,12,04,09,47,0.20
2018,12,04,09,48,0.20
2018,12,04,09,49,0.20
2018,12,04,09,51,0.20
2018,12,04,09,52,0.10
2018,12,04,09,53,0.10
2018,12,04,09,55,0.10
2018,12,04,09,56,0.10
2018,12,04,09,59,0.20
2018,12,04,10,01,0.20
2018,12,04,10,02,0.20
2018,12,04,10,03,0.20
2018,12,04,10,04,0.10
2018,12,04,10,06,0.10
2018,12,04,10,07,0.20
2018,12,04,10,08,0.20
2018,12,04,10,09,0.20
2018,12,04,10,10,0.20
2018,12,04,10,12,0.20
2018,12,04,10,13,0.20
2018,12,04,10,14,0.20
2018,12,04,10,15,0.20
2018,12,04,10,17,0.30
2018,12,04,10,19,0.30
2018,12,04,10,20,0.30
2018,12,04,10,22,0.30
2018,12,04,10,23,0.30
2018,12,04,10,26,0.30
2018,12,04,10,27,0.30
2018,12,04,10,29,0.30
2018,12,04,10,31,0.40
2018,12,04,10,33,0.40
2018,12,04,10,34,0.40
2018,12,04,10,35,0.40
2018,12,04,10,36,0.30
2018,12,04,10,37,0.30
2018,12,04,10,38,0.30
2018,12,04,10,39,0.30
2018,12,04,10,41,0.30
2018,12,04,10,42,0.30
2018,12,04,10,45,0.30
2018,12,04,10,46,0.30
2018,12,04,10,47,0.30
2018,12,04,10,49,0.30
2018,12,04,10,50,0.30
2018,12,04,10,52,0.30
2018,12,04,10,54,0.30
2018,12,04,10,55,0.40
2018,12,04,10,56,0.40
2018,12,04,10,58,0.40
2018,12,04,10,59,0.30
2018,12,04,11,01,0.40
2018,12,04,11,02,0.30
2018,12,04,11,03,0.40
2018,12,04,11,04,0.40
2018,12,04,11,05,0.40
2018,12,04,11,06,0.40
2018,12,04,11,07,0.40
2018,12,04,11,08,0.40
2018,12,04,11,09,0.40
2018,12,04,11,10,0.40
2018,12,04,11,11,0.40
2018,12,04,11,12,0.50
2018,12,04,11,13,0.40
2018,12,04,11,14,0.50
2018,12,04,11,16,0.50
2018,12,04,11,18,0.60
2018,12,04,11,19,0.60
2018,12,04,11,20,0.60
2018,12,04,11,22,0.70
2018,12,04,11,24,0.70
2018,12,04,11,25,0.80
2018,12,04,11,27,0.80
2018,12,04,11,28,0.90
2018,12,04,11,31,1.00
2018,12,04,11,33,1.10
2018,12,04,11,34,1.20
2018,12,04,11,36,1.30
2018,12,04,11,38,1.30
2018,12,04,11,41,1.30
2018,12,04,11,42,1.30
2018,12,04,11,43,1.30
2018,12,04,11,44,1.30
2018,12,04,11,45,1.30
2018,12,04,11,46,1.30
2018,12,04,11,47,1.30
2018,12,04,11,48,1.40
2018,12,04,11,50,1.40
2018,12,04,11,53,1.30
2018,12,04,11,54,1.30
2018,12,04,11,57,1.30
2018,12,04,11,59,1.30
2018,12,04,12,00,1.30
2018,12,04,12,01,1.30
2018,12,04,12,02,1.30
2018,12,04,12,03,1.30
2018,12,04,12,04,1.30
2018,12,04,12,06,1.30
2018,12,04,12,07,1.30
2018,12,04,12,09,1.30
2018,12,04,12,11,1.30
2018,12,04,12,12,1.40
2018,12,04,12,14,1.40
2018,12,04,12,16,1.40
2018,12,04,12,17,1.40
2018,12,04,12,18,1.40
2018,12,04,12,19,1.50
2018,12,04,12,20,1.50
2018,12,04,12,23,1.50
2018,12,04,12,24,1.60
2018,12,04,12,25,1.50
2018,12,04,12,26,1.50
2018,12,04,12,29,1.50
2018,12,04,12,30,1.50
2018,12,04,12,31,1.50
2018,12,04,12,33,1.50
2018,12,04,12,34,1.60
2018,12,04,12,36,1.60
2018,12,04,12,37,1.60
2018,12,04,12,39,1.50
2018,12,04,12,40,1.50
2018,12,04,12,41,1.40
2018,12,04,12,42,1.40
2018,12,04,12,44,1.30
2018,12,04,12,45,1.30
2018,12,04,12,47,1.30
2018,12,04,12,48,1.30
2018,12,04,12,49,1.30
2018,12,04,12,50,1.30
2018,12,04,12,51,1.30
2018,12,04,12,53,1.30
2018,12,04,12,54,1.30
2018,12,04,12,56,1.30
2018,12,04,12,58,1.30
2018,12,04,12,59,1.40
2018,12,04,13,00,1.40
2018,12,04,13,02,1.40
2018,12,04,13,03,1.40
2018,12,04,13,04,1.40
2018,12,04,13,07,1.40
2018,12,04,13,08,1.40
2018,12,04,13,09,1.40
2018,12,04,13,11,1.30
2018,12,04,13,13,1.30
2018,12,04,13,14,1.30
2018,12,04,13,15,1.30
2018,12,04,13,16,1.30
2018,12,04,13,17,1.30
2018,12,04,13,19,1.30
2018,12,04,13,20,1.30
2018,12,04,13,22,1.30
2018,12,04,13,23,1.30
2018,12,04,13,24,1.30
2018,12,04,13,25,1.30
2018,12,04,13,28,1.40
2018,12,04,13,29,1.40
2018,12,04,13,30,1.40
2018,12,04,13,32,1.40
2018,12,04,13,34,1.50
2018,12,04,13,36,1.50
2018,12,04,13,37,1.60
2018,12,04,13,38,1.60
2018,12,04,13,39,1.60
2018,12,04,13,40,1.60
2018,12,04,13,41,1.60
2018,12,04,13,44,1.70
2018,12,04,13,45,1.70
2018,12,04,13,46,1.70
2018,12,04,13,48,1.70
2018,12,04,13,50,1.70
2018,12,04,13,51,1.70
2018,12,04,13,52,1.80
2018,12,04,13,54,1.80
2018,12,04,13,55,1.80
2018,12,04,13,57,1.90
2018,12,04,13,58,1.90
2018,12,04,13,59,1.90
2018,12,04,14,00,1.90
2018,12,04,14,02,1.90
2018,12,04,14,03,1.90
2018,12,04,14,04,1.90
2018,12,04,14,05,1.90
2018,12,04,14,06,1.90
2018,12,04,14,09,2.00
2018,12,04,14,12,2.20
2018,12,04,14,13,2.30
2018,12,04,14,15,2.40
2018,12,04,14,16,2.50
2018,12,04,14,17,2.60
2018,12,04,14,19,2.60
2018,12,04,14,20,2.70
2018,12,04,14,21,2.80
2018,12,04,14,22,2.80
2018,12,04,14,24,2.80
2018,12,04,14,25,2.90
2018,12,04,14,27,3.00
2018,12,04,14,29,3.10
2018,12,04,14,30,3.20
2018,12,04,14,31,3.30
2018,12,04,14,32,3.30
2018,12,04,14,33,3.30
2018,12,04,14,34,3.30
2018,12,04,14,35,3.40
2018,12,04,14,37,3.40
2018,12,04,14,38,3.50
2018,12,04,14,39,3.60
2018,12,04,14,41,3.60
2018,12,04,14,42,3.70
2018,12,04,14,43,3.70
2018,12,04,14,44,3.70
2018,12,04,14,46,3.70
2018,12,04,14,48,3.70
2018,12,04,14,50,3.80
2018,12,04,14,51,3.80
2018,12,04,14,52,3.90
2018,12,04,14,53,3.90
2018,12,04,14,54,3.90
2018,12,04,14,57,4.10
2018,12,04,14,59,4.20
2018,12,04,15,00,4.20
2018,12,04,15,02,4.30
2018,12,04,15,03,4.30
2018,12,04,15,04,4.30
2018,12,04,15,05,4.30
2018,12,04,15,06,4.30
2018,12,04,15,08,4.30
2018,12,04,15,09,4.40
2018,12,04,15,11,4.40
2018,12,04,15,12,4.30
2018,12,04,15,13,4.30
2018,12,04,15,14,4.30
2018,12,04,15,15,4.30
2018,12,04,15,16,4.30
2018,12,04,15,18,4.30
2018,12,04,15,19,4.30
2018,12,04,15,20,4.30
2018,12,04,15,21,4.30
2018,12,04,15,22,4.30
2018,12,04,15,24,4.30
2018,12,04,15,25,4.30
2018,12,04,15,26,4.30
2018,12,04,15,27,4.30
2018,12,04,15,28,4.30
2018,12,04,15,31,4.40
2018,12,04,15,32,4.40
2018,12,04,15,33,4.40
2018,12,04,15,35,4.40
2018,12,04,15,36,4.40
2018,12,04,15,37,4.40
2018,12,04,15,38,4.40
2018,12,04,15,39,4.40
2018,12,04,15,40,4.40
2018,12,04,15,41,4.40
2018,12,04,15,43,4.40
2018,12,04,15,44,4.30
2018,12,04,15,45,4.30
2018,12,04,15,46,4.30
2018,12,04,15,48,4.30
2018,12,04,15,49,4.20
2018,12,04,15,50,4.10
2018,12,04,15,51,4.10
2018,12,04,15,52,4.10
2018,12,04,15,53,4.00
2018,12,04,15,54,3.90
2018,12,04,15,55,3.80
2018,12,04,15,56,3.80
2018,12,04,15,57,3.80
2018,12,04,15,59,3.70
2018,12,04,16,00,3.60
2018,12,04,16,02,3.60
2018,12,04,16,03,3.50
2018,12,04,16,05,3.40
2018,12,04,16,06,3.30
2018,12,04,16,07,3.30
2018,12,04,16,08,3.30
2018,12,04,16,10,3.20
2018,12,04,16,11,3.10
2018,12,04,16,13,3.00
2018,12,04,16,14,3.00
2018,12,04,16,16,2.90
2018,12,04,16,17,2.90
2018,12,04,16,18,2.90
2018,12,04,16,19,2.90
2018,12,04,16,21,2.80
2018,12,04,16,22,2.90
2018,12,04,16,23,2.90
2018,12,04,16,24,2.90
2018,12,04,16,25,2.90
2018,12,04,16,27,2.90
2018,12,04,16,28,2.90
2018,12,04,16,30,2.90
2018,12,04,16,31,2.90
2018,12,04,16,32,2.90
2018,12,04,16,34,2.90
2018,12,04,16,35,2.90
2018,12,04,16,37,2.80
2018,12,04,16,38,2.80
2018,12,04,16,39,2.80
2018,12,04,16,40,2.80
2018,12,04,16,42,2.80
2018,12,04,16,43,2.80
2018,12,04,16,45,2.80
2018,12,04,16,46,2.80
2018,12,04,16,49,2.80
2018,12,04,16,50,2.80
2018,12,04,16,51,2.70
2018,12,04,16,53,2.70
2018,12,04,16,54,2.60
2018,12,04,16,56,2.60
2018,12,04,16,57,2.50
2018,12,04,16,58,2.40
2018,12,04,16,59,2.30
2018,12,04,17,01,2.30
2018,12,04,17,02,2.20
2018,12,04,17,04,2.10
2018,12,04,17,06,1.90
2018,12,04,17,07,1.90
2018,12,04,17,09,1.80
2018,12,04,17,10,1.80
2018,12,04,17,11,1.70
2018,12,04,17,12,1.70
2018,12,04,17,14,1.60
2018,12,04,17,15,1.60
2018,12,04,17,17,1.40
2018,12,04,17,18,1.40
2018,12,04,17,19,1.40
2018,12,04,17,21,1.30
2018,12,04,17,22,1.30
2018,12,04,17,24,1.30
2018,12,04,17,25,1.20
2018,12,04,17,26,1.20
2018,12,04,17,27,1.20
2018,12,04,17,29,1.10
2018,12,04,17,31,1.10
2018,12,04,17,32,1.10
2018,12,04,17,34,0.90
2018,12,04,17,36,0.90
2018,12,04,17,37,0.90
2018,12,04,17,38,0.80
2018,12,04,17,40,0.80
2018,12,04,17,41,0.80
2018,12,04,17,43,0.70
2018,12,04,17,45,0.70
2018,12,04,17,46,0.70
2018,12,04,17,48,0.70
2018,12,04,17,49,0.70
2018,12,04,17,50,0.60
2018,12,04,17,51,0.60
2018,12,04,17,53,0.60
2018,12,04,17,55,0.60
2018,12,04,17,56,0.60
2018,12,04,17,57,0.50
2018,12,04,17,59,0.50
2018,12,04,18,00,0.40
2018,12,04,18,01,0.40
2018,12,04,18,02,0.40
2018,12,04,18,04,0.40
2018,12,04,18,05,0.30
2018,12,04,18,07,0.30
2018,12,04,18,08,0.30
2018,12,04,18,09,0.30
2018,12,04,18,12,0.30
2018,12,04,18,14,0.20
2018,12,04,18,15,0.20
2018,12,04,18,17,0.20
2018,12,04,18,18,0.20
2018,12,04,18,19,0.20
2018,12,04,18,21,0.10
2018,12,04,18,22,0.10
2018,12,04,18,23,0.10
2018,12,04,18,24,0.10
2018,12,04,18,25,0.10
2018,12,04,18,26,0.10
2018,12,04,18,27,0.10
2018,12,04,18,28,0.10
2018,12,04,18,29,0.10
2018,12,04,18,31,0.00
2018,12,04,18,34,0.00
2018,12,04,18,36,-0.10
2018,12,04,18,37,-0.10
2018,12,04,18,38,-0.20
2018,12,04,18,39,-0.20
2018,12,04,18,40,-0.20
2018,12,04,18,41,-0.20
2018,12,04,18,42,-0.30
2018,12,04,18,44,-0.30
2018,12,04,18,45,-0.30
2018,12,04,18,46,-0.30
2018,12,04,18,47,-0.30
2018,12,04,18,48,-0.40
2018,12,04,18,49,-0.40
2018,12,04,18,50,-0.40
2018,12,04,18,51,-0.40
2018,12,04,18,53,-0.40
2018,12,04,18,54,-0.40
2018,12,04,18,55,-0.40
2018,12,04,18,56,-0.40
2018,12,04,18,58,-0.40
2018,12,04,18,59,-0.50
2018,12,04,19,01,-0.50
2018,12,04,19,02,-0.50
2018,12,04,19,03,-0.60
2018,12,04,19,05,-0.60
2018,12,04,19,06,-0.60
2018,12,04,19,07,-0.60
2018,12,04,19,08,-0.60
2018,12,04,19,09,-0.60
2018,12,04,19,10,-0.60
2018,12,04,19,12,-0.60
2018,12,04,19,13,-0.60
2018,12,04,19,14,-0.60
2018,12,04,19,15,-0.70
2018,12,04,19,16,-0.70
2018,12,04,19,17,-0.70
2018,12,04,19,18,-0.70
2018,12,04,19,19,-0.70
2018,12,04,19,20,-0.70
2018,12,04,19,21,-0.70
2018,12,04,19,22,-0.70
2018,12,04,19,23,-0.70
2018,12,04,19,25,-0.70
2018,12,04,19,27,-0.70
2018,12,04,19,29,-0.70
2018,12,04,19,30,-0.70
2018,12,04,19,31,-0.80
2018,12,04,19,32,-0.70
2018,12,04,19,33,-0.80
2018,12,04,19,34,-0.80
2018,12,04,19,35,-0.80
2018,12,04,19,37,-0.80
2018,12,04,19,38,-0.80
2018,12,04,19,39,-0.80
2018,12,04,19,40,-0.80
2018,12,04,19,42,-0.80
2018,12,04,19,44,-0.80
2018,12,04,19,45,-0.80
2018,12,04,19,47,-0.80
2018,12,04,19,48,-0.80
2018,12,04,19,49,-0.80
2018,12,04,19,51,-0.80
2018,12,04,19,52,-0.80
2018,12,04,19,54,-0.80
2018,12,04,19,55,-0.80
2018,12,04,19,56,-0.80
2018,12,04,19,57,-0.80
2018,12,04,19,58,-0.80
2018,12,04,20,00,-0.80
2018,12,04,20,02,-0.80
2018,12,04,20,03,-0.80
2018,12,04,20,05,-0.70
2018,12,04,20,06,-0.70
2018,12,04,20,07,-0.80
2018,12,04,20,08,-0.80
2018,12,04,20,09,-0.70
2018,12,04,20,11,-0.80
2018,12,04,20,12,-0.80
2018,12,04,20,13,-0.80
2018,12,04,20,14,-0.80
2018,12,04,20,15,-0.80
2018,12,04,20,16,-0.80
2018,12,04,20,18,-0.80
2018,12,04,20,19,-0.80
2018,12,04,20,20,-0.80
2018,12,04,20,21,-0.80
2018,12,04,20,22,-0.80
2018,12,04,20,23,-0.80
2018,12,04,20,24,-0.80
2018,12,04,20,26,-0.80
2018,12,04,20,27,-0.80
2018,12,04,20,28,-0.80
2018,12,04,20,30,-0.90
2018,12,04,20,31,-0.90
2018,12,04,20,32,-0.90
2018,12,04,20,33,-0.90
2018,12,04,20,34,-0.90
2018,12,04,20,35,-0.90
2018,12,04,20,37,-0.90
2018,12,04,20,39,-0.90
2018,12,04,20,40,-0.80
2018,12,04,20,41,-0.80
2018,12,04,20,42,-0.90
2018,12,04,20,43,-0.90
2018,12,04,20,45,-0.90
2018,12,04,20,46,-0.90
2018,12,04,20,47,-0.90
2018,12,04,20,49,-1.00
2018,12,04,20,50,-1.00
2018,12,04,20,52,-1.00
2018,12,04,20,53,-1.10
2018,12,04,20,54,-1.10
2018,12,04,20,55,-1.10
2018,12,04,20,56,-1.10
2018,12,04,20,57,-1.10
2018,12,04,20,58,-1.10
2018,12,04,21,00,-1.10
2018,12,04,21,01,-1.10
2018,12,04,21,02,-1.10
2018,12,04,21,03,-1.10
2018,12,04,21,05,-1.20
2018,12,04,21,07,-1.20
2018,12,04,21,08,-1.20
2018,12,04,21,09,-1.20
2018,12,04,21,10,-1.20
2018,12,04,21,11,-1.20
2018,12,04,21,14,-1.20
2018,12,04,21,16,-1.20
2018,12,04,21,18,-1.20
2018,12,04,21,19,-1.20
2018,12,04,21,21,-1.20
2018,12,04,21,23,-1.30
2018,12,04,21,24,-1.30
2018,12,04,21,26,-1.30
2018,12,04,21,27,-1.20
2018,12,04,21,29,-1.30
2018,12,04,21,30,-1.30
2018,12,04,21,31,-1.30
2018,12,04,21,32,-1.20
2018,12,04,21,33,-1.20
2018,12,04,21,35,-1.20
2018,12,04,21,36,-1.20
2018,12,04,21,37,-1.20
2018,12,04,21,39,-1.20
2018,12,04,21,40,-1.20
2018,12,04,21,42,-1.20
2018,12,04,21,44,-1.20
2018,12,04,21,45,-1.20
2018,12,04,21,47,-1.20
2018,12,04,21,48,-1.20
2018,12,04,21,49,-1.20
2018,12,04,21,51,-1.20
2018,12,04,21,52,-1.20
2018,12,04,21,54,-1.20
2018,12,04,21,55,-1.20
2018,12,04,21,57,-1.20
2018,12,04,21,58,-1.20
2018,12,04,22,00,-1.30
2018,12,04,22,02,-1.30
2018,12,04,22,03,-1.30
2018,12,04,22,04,-1.30
2018,12,04,22,06,-1.30
2018,12,04,22,07,-1.30
2018,12,04,22,08,-1.30
2018,12,04,22,09,-1.30
2018,12,04,22,11,-1.30
2018,12,04,22,12,-1.30
2018,12,04,22,13,-1.20
2018,12,04,22,14,-1.30
2018,12,04,22,15,-1.20
2018,12,04,22,16,-1.20
2018,12,04,22,17,-1.20
2018,12,04,22,18,-1.20
2018,12,04,22,19,-1.20
2018,12,04,22,20,-1.20
2018,12,04,22,22,-1.20
2018,12,04,22,23,-1.20
2018,12,04,22,24,-1.20
2018,12,04,22,26,-1.20
2018,12,04,22,27,-1.20
2018,12,04,22,28,-1.20
2018,12,04,22,29,-1.20
2018,12,04,22,30,-1.20
2018,12,04,22,31,-1.20
2018,12,04,22,32,-1.20
2018,12,04,22,34,-1.20
2018,12,04,22,35,-1.20
2018,12,04,22,36,-1.20
2018,12,04,22,37,-1.20
2018,12,04,22,38,-1.20
2018,12,04,22,39,-1.20
2018,12,04,22,41,-1.20
2018,12,04,22,43,-1.20
2018,12,04,22,45,-1.20
2018,12,04,22,46,-1.20
2018,12,04,22,47,-1.20
2018,12,04,22,49,-1.20
2018,12,04,22,50,-1.20
2018,12,04,22,51,-1.20
2018,12,04,22,52,-1.30
2018,12,04,22,53,-1.20
2018,12,04,22,55,-1.30
2018,12,04,22,57,-1.30
2018,12,04,22,58,-1.30
2018,12,04,22,59,-1.30
2018,12,04,23,00,-1.30
2018,12,04,23,02,-1.30
2018,12,04,23,03,-1.30
2018,12,04,23,04,-1.30